owner,sensor,date,latitude,longitude,vertical_datum,wind_speed,wind_to_direction,wind_speed_of_gust,qcFlag 
DISL,ioos:station:DISL:MHPA:1,2015-11-01T00:00:00Z,30.6671,-87.9365,8.5,8.45,152.2,-9999.0,'1111122,1111122,1111122' 
DISL,ioos:station:DISL:MHPA:1,2015-11-01T00:30:00Z,30.6671,-87.9365,8.5,9.95,151.0,-9999.0,'1111122,1111122,1111122' 
DISL,ioos:station:DISL:MHPA:1,2015-11-01T01:00:00Z,30.6671,-87.9365,8.5,11.47,146.9,-9999.0,'1111122,1111122,1111122' 
DISL,ioos:station:DISL:MHPA:1,2015-11-01T01:30:00Z,30.6671,-87.9365,8.5,9.62,248.1,-9999.0,'1111122,1111122,1111122' 
DISL,ioos:station:DISL:MHPA:1,2015-11-01T02:00:00Z,30.6671,-87.9365,8.5,8.29,287.4,-9999.0,'1111122,1111122,1111122' 
DISL,ioos:station:DISL:MHPA:1,2015-11-01T02:30:00Z,30.6671,-87.9365,8.5,3.46,328.9,-9999.0,'1111122,1111122,1111122' 
DISL,ioos:station:DISL:MHPA:1,2015-11-01T03:00:00Z,30.6671,-87.9365,8.5,1.92,187.3,-9999.0,'1111122,1111122,1111122' 
DISL,ioos:station:DISL:MHPA:1,2015-11-01T03:30:00Z,30.6671,-87.9365,8.5,1.48,175.0,-9999.0,'1111122,1111122,1111122' 
DISL,ioos:station:DISL:MHPA:1,2015-11-01T04:00:00Z,30.6671,-87.9365,8.5,0.91,198.6,-9999.0,'1111122,1111122,1111122' 
DISL,ioos:station:DISL:MHPA:1,2015-11-01T04:30:00Z,30.6671,-87.9365,8.5,1.91,188.3,-9999.0,'1111122,1111122,1111122' 
DISL,ioos:station:DISL:MHPA:1,2015-11-01T05:00:00Z,30.6671,-87.9365,8.5,0.99,193.3,-9999.0,'1111122,1111122,1111122' 
DISL,ioos:station:DISL:MHPA:1,2015-11-01T05:30:00Z,30.6671,-87.9365,8.5,1.6,209.2,-9999.0,'1111122,1111122,1111122' 
DISL,ioos:station:DISL:MHPA:1,2015-11-01T06:00:00Z,30.6671,-87.9365,8.5,1.77,235.7,-9999.0,'1111122,1111122,1111122' 
DISL,ioos:station:DISL:MHPA:1,2015-11-01T06:30:00Z,30.6671,-87.9365,8.5,1.07,191.1,-9999.0,'1111122,1111122,1111122' 
DISL,ioos:station:DISL:MHPA:1,2015-11-01T07:00:00Z,30.6671,-87.9365,8.5,0.93,142.7,-9999.0,'1111122,1111122,1111122' 
DISL,ioos:station:DISL:MHPA:1,2015-11-01T07:30:00Z,30.6671,-87.9365,8.5,0.34,126.8,-9999.0,'1111122,1111122,1111122' 
DISL,ioos:station:DISL:MHPA:1,2015-11-01T08:00:00Z,30.6671,-87.9365,8.5,2.33,295.9,-9999.0,'1111122,1111122,1111122' 
DISL,ioos:station:DISL:MHPA:1,2015-11-01T08:30:00Z,30.6671,-87.9365,8.5,1.28,24.33,-9999.0,'1111122,1111122,1111122' 
DISL,ioos:station:DISL:MHPA:1,2015-11-01T09:00:00Z,30.6671,-87.9365,8.5,0.89,36.76,-9999.0,'1111122,1111122,1111122' 
DISL,ioos:station:DISL:MHPA:1,2015-11-01T09:30:00Z,30.6671,-87.9365,8.5,0.69,106.6,-9999.0,'1111122,1111122,1111122' 
DISL,ioos:station:DISL:MHPA:1,2015-11-01T10:00:00Z,30.6671,-87.9365,8.5,0.94,278.5,-9999.0,'1111122,1111122,1111122' 
DISL,ioos:station:DISL:MHPA:1,2015-11-01T10:30:00Z,30.6671,-87.9365,8.5,2.52,319.1,-9999.0,'1111122,1111122,1111122' 
DISL,ioos:station:DISL:MHPA:1,2015-11-01T11:00:00Z,30.6671,-87.9365,8.5,2.12,349.4,-9999.0,'1111122,1111122,1111122' 
DISL,ioos:station:DISL:MHPA:1,2015-11-01T11:30:00Z,30.6671,-87.9365,8.5,0.59,34.26,-9999.0,'1111122,1111122,1111122' 
DISL,ioos:station:DISL:MHPA:1,2015-11-01T12:00:00Z,30.6671,-87.9365,8.5,1.38,347.2,-9999.0,'1111122,1111122,1111122' 
DISL,ioos:station:DISL:MHPA:1,2015-11-01T12:30:00Z,30.6671,-87.9365,8.5,1.73,347.1,-9999.0,'1111122,1111122,1111122' 
DISL,ioos:station:DISL:MHPA:1,2015-11-01T13:00:00Z,30.6671,-87.9365,8.5,3.67,325.6,-9999.0,'1111122,1111122,1111122' 
DISL,ioos:station:DISL:MHPA:1,2015-11-01T13:30:00Z,30.6671,-87.9365,8.5,2.8,13.06,-9999.0,'1111122,1111122,1111122' 
DISL,ioos:station:DISL:MHPA:1,2015-11-01T14:00:00Z,30.6671,-87.9365,8.5,3.05,37.04,-9999.0,'1111122,1111122,1111122' 
DISL,ioos:station:DISL:MHPA:1,2015-11-01T14:30:00Z,30.6671,-87.9365,8.5,2.78,37.46,-9999.0,'1111122,1111122,1111122' 
DISL,ioos:station:DISL:MHPA:1,2015-11-01T15:00:00Z,30.6671,-87.9365,8.5,2.57,46.58,-9999.0,'1111122,1111122,1111122' 
DISL,ioos:station:DISL:MHPA:1,2015-11-01T15:30:00Z,30.6671,-87.9365,8.5,1.3,54.86,-9999.0,'1111122,1111122,1111122' 
DISL,ioos:station:DISL:MHPA:1,2015-11-01T16:00:00Z,30.6671,-87.9365,8.5,2.31,9.31,-9999.0,'1111122,1111122,1111122' 
DISL,ioos:station:DISL:MHPA:1,2015-11-01T16:30:00Z,30.6671,-87.9365,8.5,3.32,359.2,-9999.0,'1111122,1111122,1111122' 
DISL,ioos:station:DISL:MHPA:1,2015-11-01T17:00:00Z,30.6671,-87.9365,8.5,3.26,333.6,-9999.0,'1111122,1111122,1111122' 
DISL,ioos:station:DISL:MHPA:1,2015-11-01T17:30:00Z,30.6671,-87.9365,8.5,3.35,345.7,-9999.0,'1111122,1111122,1111122' 
DISL,ioos:station:DISL:MHPA:1,2015-11-01T18:00:00Z,30.6671,-87.9365,8.5,4.59,355.0,-9999.0,'1111122,1111122,1111122' 
DISL,ioos:station:DISL:MHPA:1,2015-11-01T18:30:00Z,30.6671,-87.9365,8.5,3.56,351.9,-9999.0,'1111122,1111122,1111122' 
DISL,ioos:station:DISL:MHPA:1,2015-11-01T19:00:00Z,30.6671,-87.9365,8.5,3.73,62.54,-9999.0,'1111122,1111122,1111122' 
DISL,ioos:station:DISL:MHPA:1,2015-11-01T19:30:00Z,30.6671,-87.9365,8.5,2.58,52.4,-9999.0,'1111122,1111122,1111122' 
DISL,ioos:station:DISL:MHPA:1,2015-11-01T20:00:00Z,30.6671,-87.9365,8.5,2.23,52.41,-9999.0,'1111122,1111122,1111122' 
DISL,ioos:station:DISL:MHPA:1,2015-11-01T20:30:00Z,30.6671,-87.9365,8.5,3.51,27.92,-9999.0,'1111122,1111122,1111122' 
DISL,ioos:station:DISL:MHPA:1,2015-11-01T21:00:00Z,30.6671,-87.9365,8.5,5.19,64.1,-9999.0,'1111122,1111122,1111122' 
DISL,ioos:station:DISL:MHPA:1,2015-11-01T21:30:00Z,30.6671,-87.9365,8.5,3.3,28.2,-9999.0,'1111122,1111122,1111122' 
DISL,ioos:station:DISL:MHPA:1,2015-11-01T22:00:00Z,30.6671,-87.9365,8.5,2.39,120.6,-9999.0,'1111122,1111122,1111122' 
DISL,ioos:station:DISL:MHPA:1,2015-11-01T22:30:00Z,30.6671,-87.9365,8.5,3.12,38.54,-9999.0,'1111122,1111122,1111122' 
DISL,ioos:station:DISL:MHPA:1,2015-11-01T23:00:00Z,30.6671,-87.9365,8.5,2.82,59.71,-9999.0,'1111122,1111122,1111122' 
DISL,ioos:station:DISL:MHPA:1,2015-11-01T23:30:00Z,30.6671,-87.9365,8.5,4.43,51.55,-9999.0,'1111122,1111122,1111122' 
DISL,ioos:station:DISL:MHPA:1,2015-11-02T00:00:00Z,30.6671,-87.9365,8.5,4.49,45.21,-9999.0,'1111122,1111122,1111122' 
DISL,ioos:station:DISL:MHPA:1,2015-11-02T00:30:00Z,30.6671,-87.9365,8.5,4.09,64.91,-9999.0,'1111122,1111122,1111122' 
DISL,ioos:station:DISL:MHPA:1,2015-11-02T01:00:00Z,30.6671,-87.9365,8.5,2.36,84.9,-9999.0,'1111122,1111122,1111122' 
DISL,ioos:station:DISL:MHPA:1,2015-11-02T01:30:00Z,30.6671,-87.9365,8.5,3.01,93.9,-9999.0,'1111122,1111122,1111122' 
DISL,ioos:station:DISL:MHPA:1,2015-11-02T02:00:00Z,30.6671,-87.9365,8.5,2.51,61.62,-9999.0,'1111122,1111122,1111122' 
DISL,ioos:station:DISL:MHPA:1,2015-11-02T02:30:00Z,30.6671,-87.9365,8.5,2.43,330.0,-9999.0,'1111122,1111122,1111122' 
DISL,ioos:station:DISL:MHPA:1,2015-11-02T03:00:00Z,30.6671,-87.9365,8.5,1.92,64.87,-9999.0,'1111122,1111122,1111122' 
DISL,ioos:station:DISL:MHPA:1,2015-11-02T03:30:00Z,30.6671,-87.9365,8.5,1.99,42.51,-9999.0,'1111122,1111122,1111122' 
DISL,ioos:station:DISL:MHPA:1,2015-11-02T04:00:00Z,30.6671,-87.9365,8.5,1.64,56.66,-9999.0,'1111122,1111122,1111122' 
DISL,ioos:station:DISL:MHPA:1,2015-11-02T04:30:00Z,30.6671,-87.9365,8.5,1.68,66.04,-9999.0,'1111122,1111122,1111122' 
DISL,ioos:station:DISL:MHPA:1,2015-11-02T05:00:00Z,30.6671,-87.9365,8.5,0.57,77.86,-9999.0,'1111122,1111122,1111122' 
DISL,ioos:station:DISL:MHPA:1,2015-11-02T05:30:00Z,30.6671,-87.9365,8.5,1.01,34.26,-9999.0,'1111122,1111122,1111122' 
DISL,ioos:station:DISL:MHPA:1,2015-11-02T06:00:00Z,30.6671,-87.9365,8.5,0.59,84.2,-9999.0,'1111122,1111122,1111122' 
DISL,ioos:station:DISL:MHPA:1,2015-11-02T06:30:00Z,30.6671,-87.9365,8.5,0.83,104.4,-9999.0,'1111122,1111122,1111122' 
DISL,ioos:station:DISL:MHPA:1,2015-11-02T07:00:00Z,30.6671,-87.9365,8.5,0.54,68.18,-9999.0,'1111122,1111122,1111122' 
DISL,ioos:station:DISL:MHPA:1,2015-11-02T07:30:00Z,30.6671,-87.9365,8.5,0.77,251.0,-9999.0,'1111122,1111122,1111122' 
DISL,ioos:station:DISL:MHPA:1,2015-11-02T08:00:00Z,30.6671,-87.9365,8.5,0.72,19.89,-9999.0,'1111122,1111122,1111122' 
DISL,ioos:station:DISL:MHPA:1,2015-11-02T08:30:00Z,30.6671,-87.9365,8.5,0.31,88.7,-9999.0,'1111122,1111122,1111122' 
DISL,ioos:station:DISL:MHPA:1,2015-11-02T14:00:00Z,30.6671,-87.9365,8.5,0.48,341.5,-9999.0,'1111122,1111122,1111122' 
DISL,ioos:station:DISL:MHPA:1,2015-11-02T14:30:00Z,30.6671,-87.9365,8.5,0.44,129.0,-9999.0,'1111122,1111122,1111122' 
DISL,ioos:station:DISL:MHPA:1,2015-11-02T15:00:00Z,30.6671,-87.9365,8.5,0.34,270.9,-9999.0,'1111122,1111122,1111122' 
DISL,ioos:station:DISL:MHPA:1,2015-11-02T15:30:00Z,30.6671,-87.9365,8.5,2.16,256.1,-9999.0,'1111122,1111122,1111122' 
DISL,ioos:station:DISL:MHPA:1,2015-11-02T16:00:00Z,30.6671,-87.9365,8.5,3.03,263.9,-9999.0,'1111122,1111122,1111122' 
DISL,ioos:station:DISL:MHPA:1,2015-11-02T16:30:00Z,30.6671,-87.9365,8.5,0.86,218.9,-9999.0,'1111122,1111122,1111122' 
DISL,ioos:station:DISL:MHPA:1,2015-11-02T17:00:00Z,30.6671,-87.9365,8.5,0.12,159.6,-9999.0,'1111122,1111122,1111122' 
DISL,ioos:station:DISL:MHPA:1,2015-11-02T17:30:00Z,30.6671,-87.9365,8.5,1.28,164.4,-9999.0,'1111122,1111122,1111122' 
DISL,ioos:station:DISL:MHPA:1,2015-11-02T18:00:00Z,30.6671,-87.9365,8.5,1.87,170.4,-9999.0,'1111122,1111122,1111122' 
DISL,ioos:station:DISL:MHPA:1,2015-11-02T18:30:00Z,30.6671,-87.9365,8.5,2.21,177.4,-9999.0,'1111122,1111122,1111122' 
DISL,ioos:station:DISL:MHPA:1,2015-11-02T19:00:00Z,30.6671,-87.9365,8.5,2.96,172.0,-9999.0,'1111122,1111122,1111122' 
DISL,ioos:station:DISL:MHPA:1,2015-11-02T19:30:00Z,30.6671,-87.9365,8.5,3.23,261.9,-9999.0,'1111122,1111122,1111122' 
DISL,ioos:station:DISL:MHPA:1,2015-11-02T20:00:00Z,30.6671,-87.9365,8.5,4.48,278.6,-9999.0,'1111122,1111122,1111122' 
DISL,ioos:station:DISL:MHPA:1,2015-11-02T20:30:00Z,30.6671,-87.9365,8.5,4.8,269.4,-9999.0,'1111122,1111122,1111122' 
DISL,ioos:station:DISL:MHPA:1,2015-11-02T21:00:00Z,30.6671,-87.9365,8.5,3.92,296.7,-9999.0,'1111122,1111122,1111122' 
DISL,ioos:station:DISL:MHPA:1,2015-11-02T21:30:00Z,30.6671,-87.9365,8.5,3.98,307.6,-9999.0,'1111122,1111122,1111122' 
DISL,ioos:station:DISL:MHPA:1,2015-11-02T22:00:00Z,30.6671,-87.9365,8.5,3.79,316.6,-9999.0,'1111122,1111122,1111122' 
DISL,ioos:station:DISL:MHPA:1,2015-11-02T22:30:00Z,30.6671,-87.9365,8.5,3.24,331.5,-9999.0,'1111122,1111122,1111122' 
DISL,ioos:station:DISL:MHPA:1,2015-11-02T23:00:00Z,30.6671,-87.9365,8.5,2.76,345.4,-9999.0,'1111122,1111122,1111122' 
DISL,ioos:station:DISL:MHPA:1,2015-11-02T23:30:00Z,30.6671,-87.9365,8.5,1.67,329.0,-9999.0,'1111122,1111122,1111122' 
DISL,ioos:station:DISL:MHPA:1,2015-11-03T00:00:00Z,30.6671,-87.9365,8.5,2.87,317.3,-9999.0,'1111122,1111122,1111122' 
DISL,ioos:station:DISL:MHPA:1,2015-11-03T00:30:00Z,30.6671,-87.9365,8.5,2.91,312.7,-9999.0,'1111122,1111122,1111122' 
DISL,ioos:station:DISL:MHPA:1,2015-11-03T01:00:00Z,30.6671,-87.9365,8.5,2.39,308.5,-9999.0,'1111122,1111122,1111122' 
DISL,ioos:station:DISL:MHPA:1,2015-11-03T01:30:00Z,30.6671,-87.9365,8.5,2.37,318.8,-9999.0,'1111122,1111122,1111122' 
DISL,ioos:station:DISL:MHPA:1,2015-11-03T02:00:00Z,30.6671,-87.9365,8.5,2.61,325.6,-9999.0,'1111122,1111122,1111122' 
DISL,ioos:station:DISL:MHPA:1,2015-11-03T02:30:00Z,30.6671,-87.9365,8.5,2.41,326.6,-9999.0,'1111122,1111122,1111122' 
DISL,ioos:station:DISL:MHPA:1,2015-11-03T03:00:00Z,30.6671,-87.9365,8.5,1.64,335.5,-9999.0,'1111122,1111122,1111122' 
DISL,ioos:station:DISL:MHPA:1,2015-11-03T03:30:00Z,30.6671,-87.9365,8.5,1.82,335.3,-9999.0,'1111122,1111122,1111122' 
DISL,ioos:station:DISL:MHPA:1,2015-11-03T04:00:00Z,30.6671,-87.9365,8.5,1.47,334.9,-9999.0,'1111122,1111122,1111122' 
DISL,ioos:station:DISL:MHPA:1,2015-11-03T04:30:00Z,30.6671,-87.9365,8.5,2.01,330.7,-9999.0,'1111122,1111122,1111122' 
DISL,ioos:station:DISL:MHPA:1,2015-11-03T05:00:00Z,30.6671,-87.9365,8.5,1.95,331.7,-9999.0,'1111122,1111122,1111122' 
DISL,ioos:station:DISL:MHPA:1,2015-11-03T05:30:00Z,30.6671,-87.9365,8.5,1.98,335.3,-9999.0,'1111122,1111122,1111122' 
DISL,ioos:station:DISL:MHPA:1,2015-11-03T06:00:00Z,30.6671,-87.9365,8.5,2.36,334.9,-9999.0,'1111122,1111122,1111122' 
DISL,ioos:station:DISL:MHPA:1,2015-11-03T06:30:00Z,30.6671,-87.9365,8.5,2.06,338.8,-9999.0,'1111122,1111122,1111122' 
DISL,ioos:station:DISL:MHPA:1,2015-11-03T07:00:00Z,30.6671,-87.9365,8.5,1.93,332.4,-9999.0,'1111122,1111122,1111122' 
DISL,ioos:station:DISL:MHPA:1,2015-11-03T07:30:00Z,30.6671,-87.9365,8.5,2.01,327.1,-9999.0,'1111122,1111122,1111122' 
DISL,ioos:station:DISL:MHPA:1,2015-11-03T08:00:00Z,30.6671,-87.9365,8.5,1.93,325.2,-9999.0,'1111122,1111122,1111122' 
DISL,ioos:station:DISL:MHPA:1,2015-11-03T08:30:00Z,30.6671,-87.9365,8.5,2.2,330.0,-9999.0,'1111122,1111122,1111122' 
DISL,ioos:station:DISL:MHPA:1,2015-11-03T09:00:00Z,30.6671,-87.9365,8.5,1.95,325.5,-9999.0,'1111122,1111122,1111122' 
DISL,ioos:station:DISL:MHPA:1,2015-11-03T09:30:00Z,30.6671,-87.9365,8.5,2.32,319.1,-9999.0,'1111122,1111122,1111122' 
DISL,ioos:station:DISL:MHPA:1,2015-11-03T10:00:00Z,30.6671,-87.9365,8.5,1.22,325.8,-9999.0,'1111122,1111122,1111122' 
DISL,ioos:station:DISL:MHPA:1,2015-11-03T10:30:00Z,30.6671,-87.9365,8.5,1.79,325.0,-9999.0,'1111122,1111122,1111122' 
DISL,ioos:station:DISL:MHPA:1,2015-11-03T11:00:00Z,30.6671,-87.9365,8.5,1.56,331.5,-9999.0,'1111122,1111122,1111122' 
DISL,ioos:station:DISL:MHPA:1,2015-11-03T11:30:00Z,30.6671,-87.9365,8.5,1.35,327.8,-9999.0,'1111122,1111122,1111122' 
DISL,ioos:station:DISL:MHPA:1,2015-11-03T12:00:00Z,30.6671,-87.9365,8.5,1.56,324.1,-9999.0,'1111122,1111122,1111122' 
DISL,ioos:station:DISL:MHPA:1,2015-11-03T12:30:00Z,30.6671,-87.9365,8.5,1.42,319.4,-9999.0,'1111122,1111122,1111122' 
DISL,ioos:station:DISL:MHPA:1,2015-11-03T13:00:00Z,30.6671,-87.9365,8.5,1.45,325.6,-9999.0,'1111122,1111122,1111122' 
DISL,ioos:station:DISL:MHPA:1,2015-11-03T13:30:00Z,30.6671,-87.9365,8.5,1.71,342.2,-9999.0,'1111122,1111122,1111122' 
DISL,ioos:station:DISL:MHPA:1,2015-11-03T14:00:00Z,30.6671,-87.9365,8.5,1.17,342.9,-9999.0,'1111122,1111122,1111122' 
DISL,ioos:station:DISL:MHPA:1,2015-11-03T14:30:00Z,30.6671,-87.9365,8.5,1.34,320.2,-9999.0,'1111122,1111122,1111122' 
DISL,ioos:station:DISL:MHPA:1,2015-11-03T15:00:00Z,30.6671,-87.9365,8.5,0.97,269.8,-9999.0,'1111122,1111122,1111122' 
DISL,ioos:station:DISL:MHPA:1,2015-11-03T15:30:00Z,30.6671,-87.9365,8.5,2.18,297.7,-9999.0,'1111122,1111122,1111122' 
DISL,ioos:station:DISL:MHPA:1,2015-11-03T16:00:00Z,30.6671,-87.9365,8.5,2.33,354.8,-9999.0,'1111122,1111122,1111122' 
DISL,ioos:station:DISL:MHPA:1,2015-11-03T16:30:00Z,30.6671,-87.9365,8.5,1.96,328.8,-9999.0,'1111122,1111122,1111122' 
DISL,ioos:station:DISL:MHPA:1,2015-11-03T17:00:00Z,30.6671,-87.9365,8.5,1.6,17.01,-9999.0,'1111122,1111122,1111122' 
DISL,ioos:station:DISL:MHPA:1,2015-11-03T17:30:00Z,30.6671,-87.9365,8.5,1.6,351.0,-9999.0,'1111122,1111122,1111122' 
DISL,ioos:station:DISL:MHPA:1,2015-11-03T18:00:00Z,30.6671,-87.9365,8.5,1.96,314.6,-9999.0,'1111122,1111122,1111122' 
DISL,ioos:station:DISL:MHPA:1,2015-11-03T18:30:00Z,30.6671,-87.9365,8.5,1.26,340.8,-9999.0,'1111122,1111122,1111122' 
DISL,ioos:station:DISL:MHPA:1,2015-11-03T19:00:00Z,30.6671,-87.9365,8.5,1.85,3.269,-9999.0,'1111122,1111122,1111122' 
DISL,ioos:station:DISL:MHPA:1,2015-11-03T19:30:00Z,30.6671,-87.9365,8.5,2.32,334.3,-9999.0,'1111122,1111122,1111122' 
DISL,ioos:station:DISL:MHPA:1,2015-11-03T20:00:00Z,30.6671,-87.9365,8.5,3.01,325.0,-9999.0,'1111122,1111122,1111122' 
DISL,ioos:station:DISL:MHPA:1,2015-11-03T20:30:00Z,30.6671,-87.9365,8.5,2.5,339.4,-9999.0,'1111122,1111122,1111122' 
DISL,ioos:station:DISL:MHPA:1,2015-11-03T21:00:00Z,30.6671,-87.9365,8.5,2.69,321.1,-9999.0,'1111122,1111122,1111122' 
DISL,ioos:station:DISL:MHPA:1,2015-11-03T21:30:00Z,30.6671,-87.9365,8.5,2.63,338.0,-9999.0,'1111122,1111122,1111122' 
DISL,ioos:station:DISL:MHPA:1,2015-11-03T22:00:00Z,30.6671,-87.9365,8.5,2.42,341.0,-9999.0,'1111122,1111122,1111122' 
DISL,ioos:station:DISL:MHPA:1,2015-11-03T22:30:00Z,30.6671,-87.9365,8.5,2.47,343.7,-9999.0,'1111122,1111122,1111122' 
DISL,ioos:station:DISL:MHPA:1,2015-11-03T23:00:00Z,30.6671,-87.9365,8.5,1.23,21.93,-9999.0,'1111122,1111122,1111122' 
DISL,ioos:station:DISL:MHPA:1,2015-11-03T23:30:00Z,30.6671,-87.9365,8.5,0.9,1.179,-9999.0,'1111122,1111122,1111122' 
DISL,ioos:station:DISL:MHPA:1,2015-11-04T00:00:00Z,30.6671,-87.9365,8.5,1.19,4.955,-9999.0,'1111122,1111122,1111122' 
DISL,ioos:station:DISL:MHPA:1,2015-11-04T00:30:00Z,30.6671,-87.9365,8.5,2.26,344.8,-9999.0,'1111122,1111122,1111122' 
DISL,ioos:station:DISL:MHPA:1,2015-11-04T01:00:00Z,30.6671,-87.9365,8.5,0.87,39.88,-9999.0,'1111122,1111122,1111122' 
DISL,ioos:station:DISL:MHPA:1,2015-11-04T01:30:00Z,30.6671,-87.9365,8.5,1.17,96.9,-9999.0,'1111122,1111122,1111122' 
DISL,ioos:station:DISL:MHPA:1,2015-11-04T02:00:00Z,30.6671,-87.9365,8.5,0.7,84.5,-9999.0,'1111122,1111122,1111122' 
DISL,ioos:station:DISL:MHPA:1,2015-11-04T02:30:00Z,30.6671,-87.9365,8.5,0.02,115.3,-9999.0,'1111122,1111122,1111122' 
DISL,ioos:station:DISL:MHPA:1,2015-11-04T03:00:00Z,30.6671,-87.9365,8.5,0.52,15.16,-9999.0,'1111122,1111122,1111122' 
DISL,ioos:station:DISL:MHPA:1,2015-11-04T03:30:00Z,30.6671,-87.9365,8.5,0.6,21.88,-9999.0,'1111122,1111122,1111122' 
DISL,ioos:station:DISL:MHPA:1,2015-11-04T04:00:00Z,30.6671,-87.9365,8.5,0.55,85.8,-9999.0,'1111122,1111122,1111122' 
DISL,ioos:station:DISL:MHPA:1,2015-11-04T04:30:00Z,30.6671,-87.9365,8.5,0.38,17.38,-9999.0,'1111122,1111122,1111122' 
DISL,ioos:station:DISL:MHPA:1,2015-11-04T05:00:00Z,30.6671,-87.9365,8.5,0.91,12.55,-9999.0,'1111122,1111122,1111122' 
DISL,ioos:station:DISL:MHPA:1,2015-11-04T05:30:00Z,30.6671,-87.9365,8.5,0.41,41.1,-9999.0,'1111122,1111122,1111122' 
DISL,ioos:station:DISL:MHPA:1,2015-11-04T06:00:00Z,30.6671,-87.9365,8.5,0.83,70.34,-9999.0,'1111122,1111122,1111122' 
DISL,ioos:station:DISL:MHPA:1,2015-11-04T06:30:00Z,30.6671,-87.9365,8.5,0.44,80.8,-9999.0,'1111122,1111122,1111122' 
DISL,ioos:station:DISL:MHPA:1,2015-11-04T07:00:00Z,30.6671,-87.9365,8.5,0.0,15.82,-9999.0,'1114422,1111122,1111122' 
DISL,ioos:station:DISL:MHPA:1,2015-11-04T07:30:00Z,30.6671,-87.9365,8.5,0.57,42.42,-9999.0,'1111122,1111122,1111122' 
DISL,ioos:station:DISL:MHPA:1,2015-11-04T08:00:00Z,30.6671,-87.9365,8.5,0.19,25.4,-9999.0,'1111122,1111122,1111122' 
DISL,ioos:station:DISL:MHPA:1,2015-11-04T08:30:00Z,30.6671,-87.9365,8.5,0.09,81.5,-9999.0,'1111122,1111122,1111122' 
DISL,ioos:station:DISL:MHPA:1,2015-11-04T09:00:00Z,30.6671,-87.9365,8.5,0.0,0.0,-9999.0,'1114422,1114422,1111122' 
DISL,ioos:station:DISL:MHPA:1,2015-11-04T09:30:00Z,30.6671,-87.9365,8.5,0.38,21.17,-9999.0,'1111122,1111122,1111122' 
DISL,ioos:station:DISL:MHPA:1,2015-11-04T10:00:00Z,30.6671,-87.9365,8.5,0.34,358.9,-9999.0,'1111122,1111122,1111122' 
DISL,ioos:station:DISL:MHPA:1,2015-11-04T10:30:00Z,30.6671,-87.9365,8.5,0.51,34.87,-9999.0,'1111122,1111122,1111122' 
DISL,ioos:station:DISL:MHPA:1,2015-11-04T11:00:00Z,30.6671,-87.9365,8.5,0.41,1.477,-9999.0,'1111122,1111122,1111122' 
DISL,ioos:station:DISL:MHPA:1,2015-11-04T11:30:00Z,30.6671,-87.9365,8.5,0.07,26.85,-9999.0,'1111122,1111122,1111122' 
DISL,ioos:station:DISL:MHPA:1,2015-11-04T12:00:00Z,30.6671,-87.9365,8.5,0.6,343.5,-9999.0,'1111122,1111122,1111122' 
DISL,ioos:station:DISL:MHPA:1,2015-11-04T12:30:00Z,30.6671,-87.9365,8.5,0.75,331.1,-9999.0,'1111122,1111122,1111122' 
DISL,ioos:station:DISL:MHPA:1,2015-11-04T13:00:00Z,30.6671,-87.9365,8.5,0.74,347.1,-9999.0,'1111122,1111122,1111122' 
DISL,ioos:station:DISL:MHPA:1,2015-11-04T13:30:00Z,30.6671,-87.9365,8.5,0.99,348.9,-9999.0,'1111122,1111122,1111122' 
DISL,ioos:station:DISL:MHPA:1,2015-11-04T14:00:00Z,30.6671,-87.9365,8.5,0.81,24.65,-9999.0,'1111122,1111122,1111122' 
DISL,ioos:station:DISL:MHPA:1,2015-11-04T14:30:00Z,30.6671,-87.9365,8.5,1.54,45.83,-9999.0,'1111122,1111122,1111122' 
DISL,ioos:station:DISL:MHPA:1,2015-11-04T15:00:00Z,30.6671,-87.9365,8.5,0.75,39.49,-9999.0,'1111122,1111122,1111122' 
DISL,ioos:station:DISL:MHPA:1,2015-11-04T15:30:00Z,30.6671,-87.9365,8.5,0.72,156.5,-9999.0,'1111122,1111122,1111122' 
DISL,ioos:station:DISL:MHPA:1,2015-11-04T16:00:00Z,30.6671,-87.9365,8.5,1.37,230.4,-9999.0,'1111122,1111122,1111122' 
DISL,ioos:station:DISL:MHPA:1,2015-11-04T16:30:00Z,30.6671,-87.9365,8.5,2.28,238.6,-9999.0,'1111122,1111122,1111122' 
DISL,ioos:station:DISL:MHPA:1,2015-11-04T17:00:00Z,30.6671,-87.9365,8.5,2.24,239.9,-9999.0,'1111122,1111122,1111122' 
DISL,ioos:station:DISL:MHPA:1,2015-11-04T17:30:00Z,30.6671,-87.9365,8.5,1.99,230.8,-9999.0,'1111122,1111122,1111122' 
DISL,ioos:station:DISL:MHPA:1,2015-11-04T18:00:00Z,30.6671,-87.9365,8.5,2.31,231.1,-9999.0,'1111122,1111122,1111122' 
DISL,ioos:station:DISL:MHPA:1,2015-11-04T18:30:00Z,30.6671,-87.9365,8.5,2.07,233.1,-9999.0,'1111122,1111122,1111122' 
DISL,ioos:station:DISL:MHPA:1,2015-11-04T19:00:00Z,30.6671,-87.9365,8.5,1.93,225.8,-9999.0,'1111122,1111122,1111122' 
DISL,ioos:station:DISL:MHPA:1,2015-11-04T19:30:00Z,30.6671,-87.9365,8.5,1.76,222.1,-9999.0,'1111122,1111122,1111122' 
DISL,ioos:station:DISL:MHPA:1,2015-11-04T20:00:00Z,30.6671,-87.9365,8.5,1.58,207.4,-9999.0,'1111122,1111122,1111122' 
DISL,ioos:station:DISL:MHPA:1,2015-11-04T20:30:00Z,30.6671,-87.9365,8.5,2.12,182.5,-9999.0,'1111122,1111122,1111122' 
DISL,ioos:station:DISL:MHPA:1,2015-11-04T21:00:00Z,30.6671,-87.9365,8.5,2.04,213.4,-9999.0,'1111122,1111122,1111122' 
DISL,ioos:station:DISL:MHPA:1,2015-11-04T21:30:00Z,30.6671,-87.9365,8.5,2.08,203.5,-9999.0,'1111122,1111122,1111122' 
DISL,ioos:station:DISL:MHPA:1,2015-11-04T22:00:00Z,30.6671,-87.9365,8.5,2.02,205.7,-9999.0,'1111122,1111122,1111122' 
DISL,ioos:station:DISL:MHPA:1,2015-11-04T22:30:00Z,30.6671,-87.9365,8.5,2.21,190.4,-9999.0,'1111122,1111122,1111122' 
DISL,ioos:station:DISL:MHPA:1,2015-11-04T23:00:00Z,30.6671,-87.9365,8.5,2.38,186.9,-9999.0,'1111122,1111122,1111122' 
DISL,ioos:station:DISL:MHPA:1,2015-11-04T23:30:00Z,30.6671,-87.9365,8.5,2.14,170.1,-9999.0,'1111122,1111122,1111122' 
DISL,ioos:station:DISL:MHPA:1,2015-11-05T00:00:00Z,30.6671,-87.9365,8.5,0.56,102.2,-9999.0,'1111122,1111122,1111122' 
DISL,ioos:station:DISL:MHPA:1,2015-11-05T00:30:00Z,30.6671,-87.9365,8.5,1.25,98.1,-9999.0,'1111122,1111122,1111122' 
DISL,ioos:station:DISL:MHPA:1,2015-11-05T01:00:00Z,30.6671,-87.9365,8.5,1.39,107.9,-9999.0,'1111122,1111122,1111122' 
DISL,ioos:station:DISL:MHPA:1,2015-11-05T01:30:00Z,30.6671,-87.9365,8.5,1.45,100.8,-9999.0,'1111122,1111122,1111122' 
DISL,ioos:station:DISL:MHPA:1,2015-11-05T02:00:00Z,30.6671,-87.9365,8.5,1.9,83.9,-9999.0,'1111122,1111122,1111122' 
DISL,ioos:station:DISL:MHPA:1,2015-11-05T02:30:00Z,30.6671,-87.9365,8.5,1.44,111.4,-9999.0,'1111122,1111122,1111122' 
DISL,ioos:station:DISL:MHPA:1,2015-11-05T03:00:00Z,30.6671,-87.9365,8.5,0.55,101.1,-9999.0,'1111122,1111122,1111122' 
DISL,ioos:station:DISL:MHPA:1,2015-11-05T03:30:00Z,30.6671,-87.9365,8.5,0.22,125.0,-9999.0,'1111122,1111122,1111122' 
DISL,ioos:station:DISL:MHPA:1,2015-11-05T04:00:00Z,30.6671,-87.9365,8.5,1.22,314.9,-9999.0,'1111122,1111122,1111122' 
DISL,ioos:station:DISL:MHPA:1,2015-11-05T04:30:00Z,30.6671,-87.9365,8.5,0.81,19.29,-9999.0,'1111122,1111122,1111122' 
DISL,ioos:station:DISL:MHPA:1,2015-11-05T05:00:00Z,30.6671,-87.9365,8.5,0.71,13.57,-9999.0,'1111122,1111122,1111122' 
DISL,ioos:station:DISL:MHPA:1,2015-11-05T05:30:00Z,30.6671,-87.9365,8.5,0.68,12.03,-9999.0,'1111122,1111122,1111122' 
DISL,ioos:station:DISL:MHPA:1,2015-11-05T06:00:00Z,30.6671,-87.9365,8.5,0.62,58.93,-9999.0,'1111122,1111122,1111122' 
DISL,ioos:station:DISL:MHPA:1,2015-11-05T06:30:00Z,30.6671,-87.9365,8.5,0.02,77.72,-9999.0,'1111122,1111122,1111122' 
DISL,ioos:station:DISL:MHPA:1,2015-11-05T07:00:00Z,30.6671,-87.9365,8.5,0.43,70.46,-9999.0,'1111122,1111122,1111122' 
DISL,ioos:station:DISL:MHPA:1,2015-11-05T07:30:00Z,30.6671,-87.9365,8.5,2.03,93.5,-9999.0,'1111122,1111122,1111122' 
DISL,ioos:station:DISL:MHPA:1,2015-11-05T08:00:00Z,30.6671,-87.9365,8.5,1.56,86.8,-9999.0,'1111122,1111122,1111122' 
DISL,ioos:station:DISL:MHPA:1,2015-11-05T08:30:00Z,30.6671,-87.9365,8.5,1.49,89.8,-9999.0,'1111122,1111122,1111122' 
DISL,ioos:station:DISL:MHPA:1,2015-11-05T09:00:00Z,30.6671,-87.9365,8.5,1.65,82.5,-9999.0,'1111122,1111122,1111122' 
DISL,ioos:station:DISL:MHPA:1,2015-11-05T09:30:00Z,30.6671,-87.9365,8.5,1.81,87.6,-9999.0,'1111122,1111122,1111122' 